[[{"header":{"parameterUnit":"m.s-1","parameterCategory":1,"la1":30.2991,"la2":30.254,"lo1":-89.0895,"lo2":-89.0444,"dy":0.0017,"dx":0.0017,"nx":28,"ny":28,"refTime":"2024-08-06T03:00:00:Z","depth":0,"parameterNumber":2,"parameterNumberName":"U-component_of_WINDS"},"data":[0,0,0,0,0,0,0,0,0,0,0,0,0,0,0,0,0,0,0,0,0,0,0,0,0,0,0,0,0,0,0,0,0,0,0,0,0,0,0,0,0,0,0,0,0,0,0,0,0,0,0,0,0,0,0,0,0,0,2.8512,2.8513,0,2.8621,2.8622,2.8623,2.8607,2.8605,2.8603,2.8601,2.8714,2.8719,2.8723,0,0,0,0,0,0,0,0,0,0,0,0,0,2.8293,2.8297,2.8512,2.8513,2.8515,2.8621,2.8622,2.8623,2.8607,2.8605,2.8602,2.86,2.8713,2.8718,2.8724,0,0,0,0,0,0,0,0,0,0,0,0,0,2.8394,2.8298,2.8512,2.8519,2.8521,2.862,2.8622,2.8624,2.8607,2.8605,2.8602,2.8599,2.8711,2.8718,2.8725,2.8824,0,0,2.8746,2.8749,0,0,0,0,0,0,0,0,2.8388,2.8402,2.8517,2.8519,2.8521,2.8597,2.8586,2.8691,2.8608,2.8575,2.8601,2.8598,2.8678,2.8687,2.8714,2.8829,2.8834,2.8747,2.8751,2.8754,2.8756,0,0,0,0,0,0,0,2.8381,2.8397,2.8555,2.8518,2.8521,2.8518,2.8529,2.8606,2.864,2.8577,2.8576,2.8589,2.8678,2.8707,2.8716,2.8836,2.8747,2.8753,2.8758,2.876,2.9041,2.9044,0,0,0,0,0,0,2.8372,2.8391,2.8552,2.8558,2.8446,2.8524,2.8537,2.8576,2.864,2.8647,2.8592,2.8588,2.8696,2.8708,2.872,2.8843,2.8754,2.8761,2.8765,2.9038,2.9042,2.9045,0,0,0,0,0,0,2.8367,2.8386,2.8547,2.8475,2.8495,2.8531,2.8575,2.8579,2.8608,2.865,2.8657,2.8615,2.8695,2.871,2.8799,2.8846,2.8764,2.8771,2.9034,2.9039,2.9044,2.9087,0,0,0,0,0,0,2.8361,2.8384,2.8422,2.8475,2.8499,2.8623,2.8578,2.8583,2.862,2.8616,2.8673,2.868,2.8694,2.8788,2.8806,2.8855,2.8776,2.903,2.9036,2.9042,2.9081,2.9093,2.9102,0,0,0,0,0,2.8353,2.8429,2.8424,2.8443,2.8546,2.8626,2.8639,2.8652,2.8624,2.8662,2.869,2.8678,2.8838,2.8798,2.8817,2.8869,2.9027,2.9035,2.9042,2.9077,2.909,2.9102,0,0,0,0,0,0,2.838,2.8437,2.8431,2.8527,2.8572,2.8623,2.8672,2.8666,2.8721,2.8715,2.873,2.8743,2.8833,2.886,2.8813,2.897,2.8929,2.894,2.8949,2.8962,2.8972,2.8964,2.8782,0,0,0,0,0,2.8398,2.8457,2.8503,2.8583,2.8606,2.8635,2.867,2.8677,2.8724,2.8743,2.8777,2.8824,2.8885,2.8925,2.8983,2.9085,2.9098,2.913,2.9141,2.9149,2.9159,2.9217,2.9232,2.9069,2.9069,2.9069,0,0,2.8434,2.8472,2.8508,2.859,2.8626,2.8688,2.8651,2.8718,2.8765,2.8754,2.884,2.8866,2.892,2.9016,2.906,2.9041,2.9207,2.9158,2.9164,2.917,2.9226,2.9241,2.9255,2.9074,2.9073,2.9072,0,0,2.8532,2.8566,2.8638,2.8674,2.8729,2.8748,2.8765,2.8818,2.8835,2.8921,2.8915,2.8971,2.9075,2.9114,2.9148,2.9263,2.9255,2.9281,2.9336,2.9392,2.9405,2.9417,2.9459,2.9474,2.9291,2.9291,2.9291,0,2.8571,2.8663,2.8675,2.8744,2.8781,2.8773,2.8847,2.8882,2.8953,2.8979,2.8956,2.9088,2.9124,2.923,2.9258,2.9285,2.9306,2.9275,2.9402,2.9414,2.9425,2.9466,2.9482,2.9294,2.9294,2.9293,2.9293,0,2.8709,2.8773,2.8825,2.8894,2.8936,2.9007,2.9031,2.9073,2.9076,2.9098,2.9187,2.923,2.9298,2.9323,2.9327,2.9431,2.9417,2.9398,2.9358,2.9443,2.9482,2.9498,2.9298,2.9297,2.9296,2.9296,0,0,2.8827,2.8902,2.8921,2.8953,2.9013,2.9064,2.9135,2.9201,2.9238,2.9287,2.9348,2.9438,2.9421,2.9459,2.9467,2.9516,2.9607,2.9492,2.9493,2.9513,2.9727,2.9742,2.976,2.9602,2.9605,2.9608,2.9723,0,2.8932,2.9057,2.9071,2.9183,2.9244,2.9238,2.9301,2.9345,2.9368,2.9424,2.9449,2.9513,2.9485,2.9508,2.9557,2.9586,2.9651,2.9578,2.9661,2.9664,2.9649,2.978,2.9795,2.9902,2.9738,2.9741,2.9742,0,2.9071,2.9125,2.9243,2.9296,2.9323,2.9378,2.9441,2.9494,2.9545,2.9558,2.9602,2.9604,2.9679,2.9635,2.974,2.969,2.9725,2.9745,2.9749,2.9758,2.9709,2.9793,2.9936,2.9952,2.9766,2.9764,2.9763,0,2.9147,2.9249,2.9334,2.9361,2.9425,2.9464,2.9493,2.9541,2.9581,2.9636,2.9662,2.9725,2.976,2.981,2.983,2.9795,2.9934,2.9891,2.9949,2.9948,2.9978,2.9976,3.013,2.9999,2.9999,2.9998,2.9998,0,2.9264,2.9337,2.9369,2.9421,2.9503,2.9519,2.96,2.9627,2.9671,2.9729,2.9728,2.9783,2.9805,2.9864,2.988,2.9966,2.9981,2.9995,2.9999,2.9996,2.9995,3.002,3.0013,3.0003,3.0002,3.0001,3.0,0,2.9363,2.9387,2.9479,2.9533,2.9548,2.9606,2.9653,2.9704,2.9726,2.98,2.9818,2.9854,2.9924,2.9948,3.0033,3.0044,3.0144,3.014,3.0126,3.0127,3.0184,3.0179,3.0359,3.0385,3.0236,3.0238,3.0239,0,2.9436,2.9492,2.9552,2.9591,2.9621,2.9683,2.9724,2.9742,2.9784,2.9848,2.9892,2.9961,3.0017,3.0129,3.0163,3.0228,3.0228,3.0287,3.0237,3.0234,3.0231,3.0227,3.0234,3.0296,3.0297,3.0299,3.03,0,2.9564,2.9574,2.9632,2.9695,2.9743,2.9794,2.9842,2.9875,2.99,2.9948,3.002,3.0063,3.015,3.0219,3.0287,3.0317,3.0314,3.0315,3.0332,3.033,3.032,3.0328,3.0153,3.0311,3.031,3.0309,3.0308,3.0308,2.9654,2.9704,2.9754,2.982,2.9858,2.9905,2.9956,2.9985,3.0044,3.0116,3.0124,3.0201,3.0252,3.0342,3.0376,3.0438,3.0422,3.0446,3.0452,3.0458,3.0463,3.031,3.045,3.045,3.0449,3.0449,3.0449,0,2.9783,2.9815,2.9875,2.9944,2.9996,2.9987,3.0041,3.0086,3.0153,3.0202,3.0257,3.034,3.0408,3.0448,3.0516,3.0558,3.0558,3.0575,3.0573,3.0581,3.0473,3.0452,3.0574,3.0574,3.0574,3.0574,3.0574,3.0574,2.9856,2.9942,2.9958,3.0063,3.0095,3.017,3.0202,3.0246,3.0284,3.0377,3.0433,3.0458,3.0504,3.0576,3.0638,3.0648,3.0674,3.0693,3.0702,3.0601,3.0588,3.0576,3.0556,3.0698,3.0699,3.0805,3.0806,3.0807]},{"header":{"parameterUnit":"m.s-1","parameterCategory":1,"la1":30.2991,"la2":30.254,"lo1":-89.0895,"lo2":-89.0444,"dy":0.0017,"dx":0.0017,"nx":28,"ny":28,"refTime":"2024-08-06T03:00:00:Z","depth":0,"parameterNumber":3,"parameterNumberName":"V-component_of_WINDS"},"data":[0,0,0,0,0,0,0,0,0,0,0,0,0,0,0,0,0,0,0,0,0,0,0,0,0,0,0,0,0,0,0,0,0,0,0,0,0,0,0,0,0,0,0,0,0,0,0,0,0,0,0,0,0,0,0,0,0,0,-2.4389,-2.439,0,-2.4478,-2.4479,-2.448,-2.4463,-2.4461,-2.446,-2.4458,-2.4552,-2.4556,-2.456,0,0,0,0,0,0,0,0,0,0,0,0,0,-2.4206,-2.4209,-2.4388,-2.439,-2.4391,-2.4478,-2.4479,-2.448,-2.4463,-2.4461,-2.4459,-2.4457,-2.455,-2.4555,-2.456,0,0,0,0,0,0,0,0,0,0,0,0,0,-2.4289,-2.4211,-2.4388,-2.4393,-2.4394,-2.4478,-2.4479,-2.4481,-2.4464,-2.4461,-2.4459,-2.4456,-2.4549,-2.4555,-2.4561,-2.4646,0,0,-2.4579,-2.4582,0,0,0,0,0,0,0,0,-2.4285,-2.4296,-2.4391,-2.4392,-2.4394,-2.4457,-2.4449,-2.4536,-2.4464,-2.4437,-2.4458,-2.4455,-2.4522,-2.453,-2.4552,-2.4651,-2.4655,-2.458,-2.4583,-2.4586,-2.4587,0,0,0,0,0,0,0,-2.4279,-2.4292,-2.4424,-2.4392,-2.4394,-2.4391,-2.44,-2.4465,-2.4492,-2.4439,-2.4438,-2.4449,-2.4523,-2.4547,-2.4555,-2.4656,-2.4579,-2.4585,-2.4588,-2.4591,-2.4831,-2.4833,0,0,0,0,0,0,-2.4271,-2.4287,-2.4421,-2.4427,-2.4332,-2.4396,-2.4407,-2.4439,-2.4492,-2.4497,-2.4451,-2.4448,-2.4538,-2.4548,-2.4558,-2.4662,-2.4586,-2.4591,-2.4595,-2.4828,-2.4831,-2.4834,0,0,0,0,0,0,-2.4267,-2.4283,-2.4417,-2.4357,-2.4374,-2.4402,-2.4439,-2.4442,-2.4466,-2.45,-2.4505,-2.447,-2.4536,-2.4549,-2.4625,-2.4665,-2.4594,-2.46,-2.4825,-2.4829,-2.4833,-2.4871,0,0,0,0,0,0,-2.4262,-2.4282,-2.4314,-2.4358,-2.4377,-2.4482,-2.4441,-2.4446,-2.4476,-2.4473,-2.452,-2.4525,-2.4535,-2.4616,-2.4631,-2.4672,-2.4604,-2.4821,-2.4827,-2.4831,-2.4867,-2.4876,-2.4885,0,0,0,0,0,-2.4256,-2.4322,-2.4316,-2.4332,-2.4417,-2.4484,-2.4495,-2.4505,-2.448,-2.4513,-2.4535,-2.4524,-2.4658,-2.4624,-2.464,-2.4684,-2.4819,-2.4825,-2.4831,-2.4863,-2.4875,-2.4885,0,0,0,0,0,0,-2.4283,-2.4327,-2.4321,-2.4403,-2.444,-2.4481,-2.4523,-2.4517,-2.4562,-2.4558,-2.4568,-2.4579,-2.4656,-2.4678,-2.4638,-2.4771,-2.4735,-2.4745,-2.4753,-2.4765,-2.4774,-2.4767,-2.4609,0,0,0,0,0,-2.4298,-2.4348,-2.4384,-2.4453,-2.4472,-2.4494,-2.4524,-2.4528,-2.4567,-2.4583,-2.461,-2.4649,-2.4701,-2.4734,-2.4783,-2.487,-2.4881,-2.4909,-2.4918,-2.4925,-2.4933,-2.4982,-2.4995,-2.4855,-2.4855,-2.4855,0,0,-2.433,-2.4361,-2.4392,-2.4459,-2.4488,-2.4541,-2.4508,-2.4564,-2.4603,-2.4592,-2.4664,-2.4686,-2.473,-2.4812,-2.485,-2.4833,-2.4975,-2.4933,-2.4938,-2.4943,-2.499,-2.5003,-2.5015,-2.4859,-2.4858,-2.4858,0,0,-2.4416,-2.4443,-2.4504,-2.4534,-2.4578,-2.4593,-2.4608,-2.4651,-2.4664,-2.4737,-2.473,-2.4778,-2.4865,-2.4897,-2.4925,-2.5025,-2.5017,-2.504,-2.5088,-2.5135,-2.5146,-2.5156,-2.5192,-2.5205,-2.5049,-2.5049,-2.5049,0,-2.445,-2.4528,-2.4536,-2.4594,-2.4624,-2.4616,-2.4678,-2.4707,-2.4765,-2.4787,-2.4767,-2.4878,-2.4907,-2.4997,-2.5021,-2.5044,-2.5062,-2.5035,-2.5144,-2.5154,-2.5163,-2.5198,-2.5211,-2.5051,-2.5051,-2.5051,-2.5051,0,-2.4569,-2.4623,-2.4667,-2.4723,-2.4758,-2.4818,-2.4836,-2.4872,-2.4873,-2.4891,-2.4966,-2.5001,-2.5057,-2.5079,-2.5081,-2.517,-2.5158,-2.5141,-2.5105,-2.5179,-2.5212,-2.5225,-2.5055,-2.5054,-2.5053,-2.5053,0,0,-2.4673,-2.4733,-2.4749,-2.4775,-2.4824,-2.4867,-2.4927,-2.4981,-2.5012,-2.5053,-2.5104,-2.5179,-2.5164,-2.5196,-2.5202,-2.5244,-2.5321,-2.5222,-2.5223,-2.524,-2.5422,-2.5435,-2.545,-2.5316,-2.5319,-2.5321,-2.5419,0,-2.4763,-2.4868,-2.4878,-2.4972,-2.5023,-2.5016,-2.5069,-2.5105,-2.5123,-2.517,-2.519,-2.5244,-2.5219,-2.5239,-2.528,-2.5303,-2.5358,-2.5296,-2.5365,-2.5368,-2.5354,-2.5467,-2.548,-2.5571,-2.5432,-2.5434,-2.5435,0,-2.4882,-2.4926,-2.5025,-2.5068,-2.509,-2.5137,-2.5189,-2.5233,-2.5275,-2.5285,-2.5321,-2.5322,-2.5385,-2.5348,-2.5435,-2.5393,-2.5422,-2.5438,-2.5442,-2.5449,-2.5406,-2.5477,-2.56,-2.5613,-2.5455,-2.5454,-2.5452,0,-2.4949,-2.5033,-2.5104,-2.5126,-2.5178,-2.5211,-2.5234,-2.5274,-2.5306,-2.5352,-2.5374,-2.5426,-2.5455,-2.5496,-2.5512,-2.5483,-2.5599,-2.5563,-2.5611,-2.561,-2.5635,-2.5634,-2.5764,-2.5654,-2.5654,-2.5653,-2.5653,0,-2.5048,-2.511,-2.5134,-2.5178,-2.5247,-2.5258,-2.5326,-2.5348,-2.5384,-2.5432,-2.543,-2.5476,-2.5493,-2.5543,-2.5555,-2.5627,-2.564,-2.5651,-2.5653,-2.5651,-2.565,-2.567,-2.5665,-2.5657,-2.5656,-2.5655,-2.5655,0,-2.5134,-2.5153,-2.523,-2.5273,-2.5285,-2.5334,-2.5371,-2.5414,-2.5432,-2.5493,-2.5509,-2.5537,-2.5595,-2.5615,-2.5685,-2.5693,-2.5777,-2.5774,-2.5762,-2.5763,-2.581,-2.5806,-2.5959,-2.598,-2.5855,-2.5856,-2.5857,0,-2.5196,-2.5243,-2.5292,-2.5324,-2.5348,-2.54,-2.5433,-2.5447,-2.5482,-2.5534,-2.5571,-2.5628,-2.5675,-2.5768,-2.5795,-2.5849,-2.5848,-2.5898,-2.5856,-2.5853,-2.585,-2.5847,-2.5852,-2.5906,-2.5907,-2.5908,-2.5909,0,-2.5306,-2.5313,-2.536,-2.5412,-2.5452,-2.5493,-2.5534,-2.556,-2.558,-2.562,-2.5679,-2.5715,-2.5787,-2.5844,-2.59,-2.5925,-2.5921,-2.5922,-2.5936,-2.5934,-2.5926,-2.5932,-2.5784,-2.5919,-2.5918,-2.5917,-2.5916,-2.5916,-2.5382,-2.5424,-2.5464,-2.5518,-2.555,-2.5588,-2.563,-2.5653,-2.5702,-2.5761,-2.5767,-2.5831,-2.5873,-2.5947,-2.5976,-2.6026,-2.6013,-2.6033,-2.6038,-2.6043,-2.6047,-2.5918,-2.6037,-2.6036,-2.6036,-2.6036,-2.6036,0,-2.5491,-2.5517,-2.5567,-2.5623,-2.5665,-2.5657,-2.5702,-2.5738,-2.5794,-2.5834,-2.588,-2.5948,-2.6004,-2.6037,-2.6093,-2.6128,-2.6128,-2.6142,-2.614,-2.6146,-2.6056,-2.6038,-2.6142,-2.6142,-2.6142,-2.6142,-2.6142,-2.6142,-2.5553,-2.5624,-2.5636,-2.5723,-2.5749,-2.5811,-2.5837,-2.5873,-2.5904,-2.5981,-2.6027,-2.6048,-2.6085,-2.6144,-2.6196,-2.6204,-2.6225,-2.6241,-2.6248,-2.6163,-2.6152,-2.6142,-2.6125,-2.6246,-2.6246,-2.6335,-2.6336,-2.6336]}]]